Location: Drignac
(45.1667°N, 2.0333°E)
Time: 23:03:58
(UTC+00:00)

STARLINK-1243 - Pass Details

Date: 29 March 2020
Orbit: 549 x 550 km, 53.0° (Epoch: 29 May)

Event Time Altitude Azimuth Distance (km) Brightness Sun altitude
Rises 18:40:46 0° 220° (SW) 2,708 7.6 -5.1°
Reaches altitude 10° 18:43:02 10° 214° (SW) 1,818 6.6 -5.5°
Maximum altitude 18:47:01 48° 140° (SE) 720 3.9 -6.2°
Drops below altitude 10° 18:51:02 10° 65° (ENE) 1,829 5.8 -6.8°
Enters shadow 18:52:51 - 61° (ENE) 2,542 6.6 -7.2°
